(523716) = 2014 KW101

Discovered at Haleakala on 2010-05-10 by Pan-STARRS 1.

Orbit

Orbit type: Distant object

Note: WebGL enabled browser required.

epoch2023-09-13.0
epoch JD2460200.5
perihelion date1984-03-14.77014
perihelion JD2445774.27014
argument of perihelion (°)54.94904
ascending node (°)200.41734
inclination (°)19.29193
eccentricity0.0816566
perihelion distance (AU)37.5280765
Tisserand w.r.t. Jupiter5.4
ΔV w.r.t. Earth (km/sec)13.4
semimajor axis (AU)40.8649713
mean anomaly (°)54.42894
mean daily motion (°/day)0.00377290
aphelion distance (AU)44.202
period (years)261
P-vector [x]-0.26867355
P-vector [y]-0.95577845
P-vector [z]-0.11959128
Q-vector [x]0.95631099
Q-vector [y]-0.27953532
Q-vector [z]0.08561134
absolute magnitude5.98
phase slope0.15
uncertainty2
referenceMPO 780436
observations used131
oppositions11
arc length (days)4927
first opposition used2010
last opposition used2023
residual rms (arc-secs)0.48
perturbers coarse indicatorM-v
perturbers precise indicator003Ek
first observation date used2010-05-10.0
last observation date used2023-11-05.0
computer nameMPCLINUX
JD of orbit computation2458369.605563
perihelion JD uncertainty (days)7.9965E-01
argument of perihelion uncertainty (°)3.8901E-03
ascending node uncertainty (°)7.6285E-05
inclination uncertainty (°)6.8332E-06
eccentricity uncertainty 7.5697E-06
perihelion distance uncertainty (AU)2.2977E-04
Minimum Orbit Intersection Distances (in AU)
for orbit epoch: 2460200.5, reference: E2023-V65
Mercury37.0863
Venus36.8287
Earth36.5512
Mars36.0828
Jupiter32.362
Saturn27.8111
Uranus19.3741
Neptune7.70191

Observations

131 total observations over interval: 2010 05 10.60868 – 2023 11 05.259355
These data are available for download (format description).

